Boscombe Down, United Kingdom

2:26 AM BST on July 27, 2017 (GMT +0100)
Boscombe Down

Weather History for EGDM - November, 2012

Change the Weather History Date:

Wednesday, November 28, 2012

  Actual Average Record
Temperature  
Mean Temperature 38 °F -  
Max Temperature 43 °F 42 °F 55 °F (2000)
Min Temperature 33 °F 35 °F 24 °F (2010)
Degree Days  
Heating Degree Days 27    
Moisture  
Dew Point 35 °F    
Average Humidity 80    
Maximum Humidity 87    
Minimum Humidity 67    
Precipitation  
Precipitation 0.00 in - - ()
Sea Level Pressure  
Sea Level Pressure 29.96 in    
Wind  
Wind Speed 13 mph ()    
Max Wind Speed 20 mph    
Max Gust Speed -    
Visibility 6.5 miles    
Events Rain    
Averages and records for this station are not official NWS values.
T = Trace of Precipitation, MM = Missing Value Source: Averaged Metar Reports

Daily Weather History Graph

Daily Weather History Graph

Search for Another Location

Airport or City:

Trip Planner

Search our weather history database for the weather conditions in past years. The results will help you decide how hot, cold, wet, or windy it might be!

Date:

Astronomy

Nov. 28, 2012 Rise Set
Actual Time 7:45 AM GMT 4:04 PM GMT
Civil Twilight 7:06 AM GMT 4:43 PM GMT
Nautical Twilight 6:24 AM GMT 5:24 PM GMT
Astronomical Twilight 5:45 AM GMT 6:04 PM GMT
Moon 4:08 PM GMT (11/28) 7:29 AM GMT (11/28)
Length of Visible Light 9h 36m
Length of Day
8h 19m
Full, 100% of the Moon is Illuminated
Nov 28
Full
Nov 28
Full
Dec 6
Last Quarter
Dec 13
New
Dec 20
First Quarter

Hourly Weather History & Observations

Time (GMT) Temp. Windchill Dew Point Humidity Pressure Visibility Wind Dir Wind Speed Gust Speed Precip Events Conditions
12:50 AM 42.8 °F 35.8 °F 37.4 °F 81% 29.89 in 6.2 mi North 13.8 mph - N/A   Mostly Cloudy
1:50 AM 42.8 °F 35.8 °F 37.4 °F 81% 29.89 in 6.2 mi NNW 13.8 mph - N/A   Mostly Cloudy
2:50 AM 42 °F - 37 °F 78% 29.92 in 22 mi North 13.8 mph - - Rain Rain
2:50 AM 41.0 °F 33.5 °F 37.4 °F 87% 29.89 in 6.2 mi North 13.8 mph - N/A   Mostly Cloudy
3:50 AM 41.0 °F 33.1 °F 37.4 °F 87% 29.89 in 6.2 mi North 15.0 mph - N/A   Mostly Cloudy
4:50 AM 41.0 °F 33.1 °F 37.4 °F 87% 29.92 in 6.2 mi North 15.0 mph - N/A   Mostly Cloudy
5:50 AM 41 °F - 37 °F 80% 29.93 in 31 mi North 13.8 mph - -   Scattered Clouds
5:50 AM 41.0 °F 33.5 °F 37.4 °F 87% 29.92 in 6.2 mi North 13.8 mph - N/A   Mostly Cloudy
6:50 AM 41.0 °F 33.1 °F 37.4 °F 87% 29.92 in 6.2 mi North 15.0 mph - N/A   Mostly Cloudy
7:50 AM 41.0 °F 33.9 °F 35.6 °F 81% 29.95 in 6.2 mi North 12.7 mph - N/A   Mostly Cloudy
8:50 AM 41 °F - 36 °F 76% 29.97 in 25 mi North 13.8 mph - -   Partly Cloudy
8:50 AM 41.0 °F 33.5 °F 35.6 °F 81% 29.95 in 6.2 mi North 13.8 mph - N/A   Mostly Cloudy
9:50 AM 42.8 °F 35.1 °F 35.6 °F 76% 29.95 in 6.2 mi North 16.1 mph - N/A   Mostly Cloudy
10:50 AM 42.8 °F 34.3 °F 35.6 °F 76% 29.95 in 6.2 mi North 19.6 mph - N/A   Mostly Cloudy
11:50 AM 43 °F - 36 °F 67% 29.98 in 25 mi North 19.6 mph - -   Partly Cloudy
11:50 AM 42.8 °F 34.3 °F 35.6 °F 76% 29.95 in 6.2 mi North 19.6 mph - N/A   Mostly Cloudy
12:50 PM 42.8 °F 35.4 °F 35.6 °F 76% 29.95 in 6.2 mi North 15.0 mph - N/A   Mostly Cloudy
1:50 PM 42.8 °F 35.4 °F 35.6 °F 76% 29.95 in 6.2 mi North 15.0 mph - N/A   Mostly Cloudy
2:50 PM 42 °F - 35 °F 67% 29.98 in 22 mi North 15.0 mph - -   Mostly Cloudy
2:50 PM 42.8 °F 35.4 °F 35.6 °F 76% 29.95 in 6.2 mi North 15.0 mph - N/A   Mostly Cloudy
3:36 PM 41.0 °F 33.9 °F 35.6 °F 81% 29.98 in 6.2 mi NNW 12.7 mph - N/A   Mostly Cloudy
3:50 PM 41.0 °F 33.1 °F 35.6 °F 81% 29.98 in 6.2 mi NNW 15.0 mph - N/A   Mostly Cloudy
4:50 PM 41.0 °F 33.5 °F 33.8 °F 76% 29.98 in 6.2 mi NNW 13.8 mph - N/A   Mostly Cloudy
5:50 PM 40 °F - 34 °F 72% 30.01 in 22 mi NNW 13.8 mph - -   Mostly Cloudy
5:50 PM 41.0 °F 33.5 °F 33.8 °F 76% 29.98 in 6.2 mi NNW 13.8 mph - N/A   Mostly Cloudy
6:50 PM 39.2 °F 31.6 °F 33.8 °F 81% 29.98 in 6.2 mi NNW 12.7 mph - N/A   Overcast
7:50 PM 39.2 °F 30.8 °F 32.0 °F 75% 29.98 in 6.2 mi NNW 15.0 mph - N/A   Scattered Clouds
8:50 PM 37 °F - 32 °F 75% 30.02 in 28 mi NNW 12.7 mph - -   Mostly Cloudy
8:50 PM 37.4 °F 29.3 °F 32.0 °F 81% 30.01 in 6.2 mi NNW 12.7 mph - N/A   Mostly Cloudy
9:50 PM 35.6 °F 27.5 °F 32.0 °F 87% 29.98 in 6.2 mi NW 11.5 mph - N/A   Mostly Cloudy
10:50 PM 35.6 °F 29.2 °F 32.0 °F 87% 29.98 in 6.2 mi NW 8.1 mph - N/A   Unknown
11:50 PM 33 °F - 29 °F 82% 30.02 in 14 mi WNW 6.9 mph - -  
11:50 PM 33.8 °F 27.7 °F 30.2 °F 87% 29.98 in 6.2 mi WNW 6.9 mph - N/A   Unknown